Springfield, VT

6:50 PM EST on December 14, 2019 (GMT -0500)
Hartness State

Weather History for KVSF - November, 2019

Change the Weather History Date:

Friday, November 22, 2019

  Actual Average Record
Temperature  
Mean Temperature 37 °F 35 °F  
Max Temperature 43 °F 43 °F 63 °F (1999)
Min Temperature 30 °F 27 °F 4 °F (2018)
Degree Days  
Heating Degree Days 28 30  
Month to date heating degree days 710 578  
Since 1 July heating degree days 1402 1387  
Cooling Degree Days 0 0  
Month to date cooling degree days 0 0  
Year to date cooling degree days 409 345  
Moisture  
Dew Point 31 °F    
Average Humidity 84    
Maximum Humidity 100    
Minimum Humidity 49    
Precipitation  
Precipitation 0.02 in 0.13 in 0.88 in (2005)
Month to date precipitation 1.40 2.93  
Year to date precipitation 31.48 39.48  
Sea Level Pressure  
Sea Level Pressure 29.70 in    
Wind  
Wind Speed 3 mph ()    
Max Wind Speed 25 mph    
Max Gust Speed 39 mph    
Visibility 5.9 miles    
Events Rain    
T = Trace of Precipitation, MM = Missing Value Source: Averaged Metar Reports

Daily Weather History Graph

Daily Weather History Graph

Search for Another Location

Airport or City:

Astronomy

Nov. 22, 2019 Rise Set
Actual Time 6:51 AM EST 4:20 PM EST
Civil Twilight 6:20 AM EST 4:51 PM EST
Nautical Twilight 5:45 AM EST 5:26 PM EST
Astronomical Twilight 5:11 AM EST 6:00 PM EST
Moon 1:43 AM EST (11/22) 2:28 PM EST (11/22)
Length of Visible Light 10h 30m
Length of Day
9h 28m
Waning Crescent, 20% of the Moon is Illuminated
Nov 22
Waning Crescent
Nov 26
New
Dec 4
First Quarter
Dec 12
Full
Dec 18
Last Quarter

Hourly Weather History & Observations

Time (EST) Temp. Windchill Dew Point Humidity Pressure Visibility Wind Dir Wind Speed Gust Speed Precip Events Conditions
12:54 AM 32.0 °F - 30.9 °F 96% 29.89 in 8.0 mi Calm Calm - N/A   Scattered Clouds
1:54 AM 32.0 °F - 30.9 °F 96% 29.87 in 4.0 mi Calm Calm - N/A   Mostly Cloudy
2:54 AM 32.0 °F - 32.0 °F 100% 29.83 in 3.0 mi Calm Calm - 0.00 in   Overcast
3:28 AM 33.1 °F - 30.9 °F 92% 29.80 in 5.0 mi Calm Calm - 0.00 in   Overcast
3:54 AM 32.0 °F - 32.0 °F 100% 29.81 in 5.0 mi Calm Calm - 0.00 in   Overcast
4:54 AM 33.1 °F - 32.0 °F 96% 29.78 in 5.0 mi Calm Calm - N/A   Overcast
5:54 AM 33.1 °F - 32.0 °F 96% 29.76 in 6.0 mi Calm Calm - N/A   Overcast
6:42 AM 33.1 °F - 32.0 °F 96% 29.70 in 5.0 mi Calm Calm - N/A   Overcast
6:54 AM 33.1 °F - 32.0 °F 96% 29.72 in 4.0 mi Calm Calm - N/A   Overcast
7:18 AM 33.1 °F - 32.0 °F 96% 29.69 in 2.5 mi Calm Calm - N/A   Overcast
7:26 AM 33.1 °F - 32.0 °F 96% 29.68 in 3.0 mi Calm Calm - N/A   Overcast
7:54 AM 34.0 °F - 33.1 °F 96% 29.71 in 4.0 mi Calm Calm - N/A   Overcast
8:54 AM 35.1 °F - 34.0 °F 96% 29.67 in 4.0 mi Calm Calm - N/A   Overcast
9:54 AM 37.9 °F - 37.0 °F 97% 29.65 in 6.0 mi Calm Calm - N/A   Overcast
10:39 AM 39.0 °F 36.8 °F 37.0 °F 93% 29.61 in 4.0 mi NW 3.5 mph - 0.00 in Rain Light Rain
10:49 AM 37.4 °F - 37.4 °F 100% 29.60 in 2.5 mi Calm Calm - 0.00 in Rain Light Rain
10:54 AM 39.0 °F - 37.9 °F 96% 29.62 in 4.0 mi Calm Calm - 0.00 in   Overcast
11:09 AM 37.9 °F - 37.0 °F 97% 29.60 in 2.5 mi Calm Calm - N/A   Overcast
11:22 AM 37.9 °F - 37.0 °F 97% 29.59 in 1.5 mi Calm Calm - 0.00 in Rain Light Rain
11:31 AM 39.0 °F - 37.9 °F 96% 29.59 in 2.0 mi Calm Calm - 0.00 in Rain Light Rain
11:54 AM 39.0 °F - 37.0 °F 93% 29.62 in 2.0 mi Calm Calm - 0.00 in Rain Light Rain
12:04 PM 37.9 °F - 37.0 °F 97% 29.59 in 2.0 mi Calm Calm - 0.00 in   Overcast
12:34 PM 39.0 °F - 37.9 °F 96% 29.59 in 3.0 mi Calm Calm - 0.00 in Rain Light Rain
12:54 PM 41.0 °F 38.0 °F 37.9 °F 89% 29.60 in 5.0 mi South 4.6 mph - 0.01 in Rain Light Rain
1:04 PM 42.1 °F 38.4 °F 37.0 °F 82% 29.58 in 10.0 mi Variable 5.8 mph - 0.00 in Rain Light Rain
1:54 PM 42.1 °F 34.9 °F 34.0 °F 73% 29.60 in 10.0 mi WSW 13.8 mph 20.7 mph 0.00 in   Overcast
2:54 PM 41.0 °F 33.9 °F 32.0 °F 70% 29.59 in 10.0 mi West 12.7 mph 19.6 mph N/A   Scattered Clouds
3:54 PM 41.0 °F 33.9 °F 28.0 °F 60% 29.60 in 10.0 mi West 12.7 mph 25.3 mph N/A   Overcast
4:54 PM 39.9 °F 32.5 °F 28.0 °F 63% 29.62 in 10.0 mi West 12.7 mph 31.1 mph 0.00 in Rain Light Rain
5:54 PM 39.0 °F 29.3 °F 24.1 °F 55% 29.67 in 10.0 mi WNW 19.6 mph 34.5 mph 0.01 in   Partly Cloudy
6:54 PM 37.0 °F 28.1 °F 21.0 °F 52% 29.71 in 10.0 mi WNW 15.0 mph 26.5 mph N/A   Partly Cloudy
7:54 PM 36.0 °F 25.6 °F 19.0 °F 50% 29.77 in 10.0 mi WNW 18.4 mph 31.1 mph N/A   Mostly Cloudy
8:54 PM 34.0 °F 25.5 °F 21.0 °F 59% 29.81 in 10.0 mi WNW 11.5 mph 18.4 mph N/A   Overcast
9:54 PM 32.0 °F 21.2 °F 15.1 °F 50% 29.84 in 10.0 mi WNW 16.1 mph 33.4 mph N/A   Clear
10:54 PM 32.0 °F 21.6 °F 15.1 °F 50% 29.86 in 10.0 mi West 15.0 mph 25.3 mph N/A   Clear
11:54 PM 30.9 °F 21.7 °F 16.0 °F 54% 29.86 in 10.0 mi WNW 11.5 mph 20.7 mph N/A   Clear